Location: Campbell River
(50.0170°N, 125.2500°W)
Time: 04:09:01
(UTC-07:00)

Daily predictions for brighter satellites

Satellite Brightness Start Highest point End
(mag) Time Altitude Azimuth Time Altitude Azimuth Time Altitude Azimuth
CZ-4C R/B 3.5 00:06:55 35° SSW 00:08:06 52° W 00:11:40 10° NNW
Cosmos 2098 Rocket 4.3 00:05:06 10° N 00:09:03 35° ENE 00:11:29 23° SE
CZ-2C R/B 3.6 00:04:34 10° NNE 00:09:43 35° E 00:12:02 25° SE
Cosmos 2082 Rocket 2.7 00:04:08 10° SW 00:09:44 60° WNW 00:15:22 10° NNE
Cosmos-2242 3.5 00:06:15 10° N 00:10:27 47° ENE 00:12:09 30° SE
Timation 2 Rocket 3.9 00:10:09 13° SSW 00:15:52 88° WNW 00:22:01 10° NNE
USA 267 3.5 00:15:01 10° ENE 00:21:18 46° SE 00:25:23 21° SSW
Cosmos 1842 3.8 00:19:42 26° SW 00:21:37 53° WNW 00:25:30 10° N
SeaSat 1 2.4 00:19:51 29° SE 00:22:24 81° ENE 00:27:22 10° NNW
Terra 3.7 00:21:22 13° SW 00:24:22 22° W 00:28:03 10° NW
Cosmos 1271 Rocket 4.1 00:22:06 10° NNW 00:25:31 29° W 00:27:04 22° SW
Cosmos 1697 Rocket 4.2 00:22:52 10° NW 00:27:14 24° WSW 00:30:07 16° SW
Meteor 2-8 Rocket 4.5 00:24:11 25° SSW 00:28:02 82° W 00:34:15 10° N
NOSS 3-1 (C) 4.0 00:21:46 10° NW 00:29:11 82° SW 00:34:45 23° SE
CZ-4B R/B 3.7 00:29:21 13° E 00:30:32 15° ENE 00:32:25 10° NNE
Cosmos 1934 Rocket 4.0 00:25:49 10° N 00:32:14 89° W 00:35:40 29° S
SL-16 R/B 2.1 00:26:50 10° NNW 00:32:33 85° WSW 00:35:25 31° SSE
Cosmos 1953 2.9 00:29:06 10° NNW 00:33:02 48° W 00:34:28 33° SSW
ISS -3.4 00:30:37 10° W 00:33:54 64° N 00:37:11 10° E
Lacrosse 5 3.0 00:40:43 26° SE 00:40:45 26° SE 00:44:54 10° ENE
Cosmos 1733 3.2 00:37:16 10° NNW 00:41:04 69° W 00:42:03 46° SSW
USA 32 4.3 00:40:08 32° SSE 00:42:22 57° E 00:47:32 10° NNE
IKONOS-2 4.5 00:46:51 42° S 00:48:17 81° WSW 00:52:36 10° NNW
Cosmos 1833 Rocket 4.1 00:43:56 10° WSW 00:49:07 37° NW 00:54:21 10° NNE
Cosmos 1842 Rocket 4.0 00:44:48 10° N 00:49:14 55° ENE 00:50:57 34° SE
Cosmos 1758 Rocket 3.8 00:47:50 33° SW 00:49:39 62° WNW 00:54:00 10° N
Cosmos 389 Rocket 4.0 00:52:11 10° NW 00:55:05 25° W 00:55:46 23° WSW
Cosmos 2322 4.1 00:50:20 10° NNW 00:55:57 58° NE 00:59:42 21° SE
USA 234 3.2 00:52:05 11° ESE 00:58:33 87° SSW 01:05:09 10° WNW
Meteor 2-5 Rocket 3.9 00:56:18 32° S 00:59:08 70° E 01:05:04 10° NNE
Cosmos 494 Rocket 3.9 00:57:23 34° SSW 00:59:40 81° ESE 01:04:52 10° NNE
Lacrosse 5 rocket 1.5 00:55:12 10° WNW 00:59:51 71° SW 01:01:39 36° SE
ATLAS 2AS CENTAUR R/B 3.8 00:53:19 10° NW 01:01:17 52° NNE 01:08:49 10° ESE
NOSS 3-1 (A) 4.0 00:54:05 10° NW 01:01:30 72° SW 01:06:48 24° SSE
Cosmos 1470 3.9 01:05:43 10° NNW 01:09:21 34° W 01:10:24 29° SW
Cosmos 1378 3.0 01:08:39 55° S 01:09:24 83° E 01:13:10 10° NNE
deb Kosmos-1763 4.1 01:09:47 52° SSW 01:10:41 84° ESE 01:14:34 10° NNE
COSMOS 2428 3.6 01:05:57 10° NNW 01:11:30 46° NE 01:16:27 13° ESE
CZ-2C R/B 3.6 01:10:34 31° SSW 01:12:56 53° W 01:18:31 10° NNW
Cosmos 2360 Rocket 2.2 01:08:49 10° NNW 01:14:32 86° ENE 01:17:33 29° SSE
Cosmos 1980 Rocket 4.0 01:11:19 10° WNW 01:14:50 17° W 01:16:59 14° SW
ATLAS CENTAUR R/B 1.9 01:12:19 10° NW 01:15:34 33° WSW 01:15:34 33° WSW
ALOS 2 3.3 01:17:35 32° SW 01:18:53 40° W 01:23:02 10° NNW
BREEZE-M DEB (TANK) 2.7 01:20:04 29° WSW 01:21:41 70° SSE 01:31:26 10° E
Meteor 1-16 Rocket 4.4 01:18:21 10° NNW 01:23:37 58° W 01:25:54 33° SSW
Cosmos 1727 Rocket 4.0 01:20:50 31° S 01:24:00 89° W 01:30:19 10° N
Cosmos 2322 Rocket 3.0 01:20:14 10° NW 01:25:25 36° WSW 01:27:23 28° SW
Cosmos 1339 Rocket 4.5 01:22:25 31° S 01:25:38 90° W 01:32:02 10° N
ARGOS Delta rocket 4.5 01:21:06 10° N 01:26:15 59° WNW 01:29:05 27° SW
Cosmos 1707 3.4 01:25:32 33° WSW 01:26:43 45° WNW 01:30:28 10° N
Cosmos 1605 Rocket 4.4 01:23:31 10° NNW 01:29:22 50° W 01:32:19 28° SSW
Cosmos 1689 Rocket 2.2 01:29:18 61° ESE 01:29:38 68° ENE 01:32:45 10° N
Okean 3 Rocket 4.1 01:37:24 33° SSE 01:39:01 50° E 01:43:26 10° NNE
H-2A R/B 3.4 01:36:17 10° NNE 01:40:16 39° E 01:41:40 30° SE
Meteor 1-24 Rocket 3.8 01:39:58 32° SSW 01:42:58 87° W 01:49:04 10° NNE
Cosmos 2333 Rocket 3.4 01:38:45 10° NNW 01:44:12 42° NE 01:49:34 10° ESE
Cosmos 1992 Rocket 3.9 01:40:47 10° NNW 01:46:02 86° WSW 01:48:34 31° SSE
Cosmos 2173 Rocket 3.9 01:40:52 10° N 01:47:02 87° W 01:50:15 30° S
CZ-2C R/B 3.6 01:44:48 10° N 01:50:05 43° WNW 01:53:33 20° SW
Cosmos 2251 Rocket 4.4 01:49:56 20° WSW 01:53:24 46° WNW 01:58:36 10° NNE
Cosmos 1184 Rocket 3.4 01:54:44 41° SE 01:55:13 45° E 01:58:24 10° NNE
SAR-Lupe-2 4.4 01:56:37 34° WSW 01:57:03 36° W 02:00:24 10° NNW
CZ-4C R/B 4.1 01:57:00 30° WSW 01:57:30 32° W 02:00:52 10° NNW
Cosmos 2219 Rocket 2.7 01:53:18 10° NNW 01:58:57 59° NE 02:04:22 11° SE
Cosmos 1674 3.3 01:58:23 35° SE 01:59:33 48° E 02:03:18 10° NNE
Cosmos 1766 Rocket 4.4 01:58:38 27° SE 02:00:27 40° E 02:04:33 10° NNE
SeaSat 1 4.1 01:59:37 17° WSW 02:00:28 18° WSW 02:03:49 10° WNW
CZ-4B R/B 2.0 02:02:56 37° W 02:02:58 37° W 02:05:56 10° NNW
USA 267 3.4 01:58:03 10° ENE 02:04:35 75° NNW 02:11:07 10° WSW
Cosmos 1242 Rocket 3.3 02:03:05 10° N 02:06:31 46° ENE 02:08:00 28° SE
Cosmos 2221 2.7 02:05:19 10° NNW 02:09:31 55° W 02:10:53 37° SSW
ISS -3.9 02:07:14 10° WNW 02:10:33 88° NNE 02:13:51 10° ESE
Cosmos 1459 Rocket 4.2 02:04:28 10° NNW 02:10:43 60° W 02:14:05 28° SSW
JB-3 4.3 02:07:06 10° NNE 02:11:01 74° E 02:12:20 40° S
Cosmos 2084 Rocket 3.1 02:09:58 40° SW 02:11:22 86° SE 02:15:17 10° NE
Cosmos 1726 2.9 02:10:33 10° N 02:14:13 46° ENE 02:16:04 25° SE
Cosmos 1300 3.8 02:11:10 10° N 02:14:48 39° ENE 02:17:01 20° SE
SL-16 R/B 4.2 02:10:40 10° NNW 02:15:30 27° NE 02:20:19 10° ESE
Cosmos 2237 Rocket 3.1 02:10:19 10° NNW 02:15:48 48° NE 02:21:15 10° SE
SL-16 R/B 4.0 02:12:35 10° WNW 02:15:48 16° W 02:17:15 14° WSW
Landsat 5 4.4 02:15:20 31° SW 02:16:43 39° W 02:21:00 10° NNW
Intercosmos 25 4.3 02:16:21 10° NNW 02:19:07 24° W 02:19:24 24° W
Cosmos 1356 Rocket 4.0 02:19:12 30° SSE 02:20:48 47° E 02:24:45 10° NNE
Lacrosse 5 1.9 02:19:52 21° WSW 02:23:17 84° NNW 02:28:23 10° ENE
Cosmos 1802 Rocket 4.2 02:17:09 10° NNW 02:23:18 57° W 02:26:39 27° SSW
Geosat 4.4 02:20:13 10° NNE 02:25:10 58° NW 02:28:18 22° SW
Cosmos 1340 Rocket 2.8 02:24:41 39° SSW 02:26:01 71° WNW 02:29:59 10° N
PSLV R/B 4.2 02:24:04 25° SSE 02:26:21 65° ENE 02:30:23 10° N
Cosmos 2016 Rocket 4.2 02:24:56 10° NNW 02:31:11 59° W 02:34:49 26° SSW
SL-16 R/B 3.8 02:29:09 10° SE 02:34:47 39° ENE 02:40:28 10° N
Meteor 1-21 Rocket 4.3 02:32:11 27° SSW 02:35:35 86° WNW 02:41:29 10° NNE
Aureole 2 Rocket 3.8 02:32:27 10° NNW 02:36:16 45° ENE 02:40:15 10° SE
Cosmos 2227 Rocket 3.6 02:33:48 15° SSE 02:37:22 27° ESE 02:42:04 10° NE
Lacrosse 5 rocket 3.5 02:35:40 10° W 02:37:18 15° WSW 02:37:18 15° WSW
Cosmos 1076 Rocket 3.7 02:36:45 32° SW 02:38:35 60° WNW 02:42:55 10° N
CZ-3A R/B 2.4 02:39:11 11° NW 02:40:25 24° NNE 02:42:56 10° E
USA 234 3.9 02:39:22 24° S 02:42:07 32° SW 02:47:54 10° WNW
Meteor 2-10 4.1 02:39:20 10° N 02:44:26 75° ENE 02:48:26 17° SSE
Cosmos 1328 Rocket 3.5 02:44:08 10° NNW 02:48:37 81° W 02:51:07 26° S
Resurs 1-4 Rocket 4.0 02:45:06 10° NE 02:49:18 23° E 02:53:28 10° SE
Cosmos 2151 4.1 02:47:03 17° SSE 02:49:49 36° E 02:53:43 10° NNE
SL-08 R/B 3.7 02:45:31 13° SSE 02:49:50 66° ENE 02:54:47 10° N
ATLAS 2AS CENTAUR R/B 3.0 02:44:41 10° NW 02:52:38 61° WSW 03:00:02 10° SSE
Cosmos 2228 Rocket 3.1 02:49:34 10° NNW 02:54:04 77° W 02:56:43 24° S
COSMOS 2428 3.4 02:50:28 10° NW 02:55:42 37° WSW 02:58:26 24° SSW
Cosmos 1151 Rocket 3.2 02:52:17 10° N 02:56:38 70° E 02:59:54 17° SSE
Meteor 2-2 Rocket 4.2 02:51:04 10° NNW 02:56:41 69° W 03:00:30 21° S
Cosmos 1455 4.0 02:54:20 10° N 02:57:46 29° ENE 03:01:12 10° SE
Cosmos 2360 Rocket 3.8 02:54:09 10° WNW 02:57:47 18° W 02:59:17 16° WSW
Cosmos 2219 3.2 02:54:56 24° SSW 02:58:25 84° WNW 03:04:06 10° NNE
Cosmos 2123 Rocket 4.2 02:58:14 23° SSW 03:02:14 62° WNW 03:08:23 10° N
NOSS 3-3 (A) 4.4 03:00:10 22° SSW 03:04:11 56° ESE 03:10:47 10° NE
NOSS 3-3 (C) 4.4 03:00:16 22° SSW 03:04:17 56° ESE 03:10:53 10° NE
CZ-2D R/B 3.6 02:59:52 10° NE 03:04:23 29° E 03:08:53 10° SSE
CBERS-1 4.4 03:01:08 10° NNE 03:06:11 57° E 03:10:00 17° S
Meteor 1-27 4.4 03:02:03 10° N 03:07:53 81° E 03:13:36 11° SSE
Cosmos 2233 Rocket 4.1 03:06:48 10° NNW 03:13:03 63° W 03:17:51 18° S
ARIANE 5 R/B 3.9 03:09:37 10° NNE 03:14:12 32° E 03:18:41 10° SSE
Cosmos 1954 Rocket 4.1 03:11:25 21° S 03:15:00 71° ESE 03:20:14 10° NNE
H-2A R/B 4.0 03:12:10 10° N 03:15:40 26° WNW 03:18:17 15° WSW
Cosmos 407 Rocket 3.6 03:13:12 22° SW 03:16:35 69° WNW 03:21:45 10° NNE
Cosmos 1703 3.9 03:20:33 16° SSE 03:23:32 51° E 03:27:22 10° NNE
Helios 1A Rocket 3.5 03:19:38 10° N 03:23:38 46° WNW 03:26:10 20° SW
Cosmos 1626 2.7 03:24:32 16° S 03:27:20 54° E 03:31:00 10° NNE
Cosmos 2333 Rocket 2.7 03:23:09 10° NW 03:28:30 41° WSW 03:32:53 14° S
Cosmos 676 Rocket 4.1 03:28:06 19° SSW 03:31:57 74° WNW 03:37:15 10° NNE
SL-14 R/B 3.7 03:29:57 21° SW 03:32:24 51° WNW 03:36:24 10° N
Cosmos 1500 Rocket 3.8 03:35:17 19° SSW 03:38:20 60° WNW 03:42:45 10° N
Cosmos 1980 4.1 03:35:20 10° NW 03:40:41 43° WSW 03:46:00 10° S
Cosmos 2058 2.8 03:37:40 18° SSW 03:40:42 80° W 03:44:51 10° N
Cosmos 2219 Rocket 3.2 03:37:49 10° NW 03:42:33 28° WSW 03:46:02 15° SSW
Cosmos 2297 Rocket 2.5 03:38:44 15° SSW 03:43:26 65° ESE 03:49:04 10° NNE
Cosmos 1464 Rocket 3.9 03:37:59 10° NNW 03:44:11 78° W 03:50:17 10° S
IRS-P3 4.3 03:39:21 10° N 03:44:37 63° WNW 03:48:58 15° SSW
USA 161 4.0 03:45:15 10° E 03:46:04 12° ENE 03:46:53 10° NE
ISS -2.9 03:43:59 10° W 03:46:47 26° SW 03:49:35 10° SSE
USA 267 4.2 03:40:59 10° ENE 03:47:14 50° N 03:53:29 10° WNW
ERBS 2.2 03:45:31 19° SW 03:47:52 82° SSE 03:51:16 10° ENE
COBE Rocket 4.0 03:44:04 10° NNE 03:48:46 71° E 03:53:17 11° S
Spot 4 Rocket 4.2 03:43:41 10° NNE 03:48:51 73° ESE 03:53:52 11° S
Cosmos 1726 4.1 03:46:50 10° NW 03:49:10 16° W 03:50:40 13° WSW
Cosmos 1300 4.4 03:47:29 10° NW 03:50:15 19° W 03:52:01 14° WSW
Cosmos 1805 Rocket 3.9 03:47:49 10° S 03:52:13 64° E 03:56:37 10° NNE
BREEZE-M DEB 4.1 03:50:23 15° SSW 03:52:37 21° SSE 03:54:40 10° ESE
Cosmos 2208 Rocket 4.0 03:49:16 10° NNW 03:54:24 63° WSW 03:59:33 10° S
Cosmos 2237 Rocket 2.9 03:54:41 10° NW 03:59:42 34° WSW 04:04:41 10° SSW
SL-16 R/B 2.2 03:54:29 10° NNW 04:00:11 71° WSW 04:05:49 10° SSE
Okean O Rocket 4.4 03:58:57 10° ENE 04:00:49 12° E 04:02:42 10° ESE
NPP 4.1 03:56:23 10° N 04:01:36 51° WNW 04:06:21 12° SW
NOSS 7 (D) 4.5 03:59:51 16° SSW 04:02:29 70° SE 04:05:53 10° NE
Cosmos 468 Rocket 4.2 03:57:13 10° NNW 04:02:29 79° ENE 04:07:38 10° SSE
IRS-1D 3.7 03:59:19 10° NNE 04:04:43 88° ESE 04:10:02 10° SSW
Lacrosse 5 3.1 04:01:58 10° W 04:06:46 40° N 04:11:34 10° ENE
Lacrosse 4 Rocket 3.0 04:06:09 10° S 04:09:41 28° ESE 04:13:19 10° NE
SL-8 R/B 3.7 04:05:45 10° WSW 04:10:30 66° SSE 04:15:16 10° E
Aureole 2 Rocket 4.2 04:08:18 10° NW 04:11:19 21° WSW 04:14:04 12° SSW
SL-16 R/B 2.9 04:12:29 10° S 04:18:21 45° W 04:24:18 10° NNW
Cosmos 2227 Rocket 2.5 04:15:37 11° SW 04:21:04 59° NW 04:26:41 10° NNE
Cosmos 1633 Rocket 3.3 04:16:50 10° S 04:21:10 72° E 04:25:32 10° NNE
CZ-2D R/B 4.0 04:17:33 10° NNE 04:21:32 57° E 04:25:35 10° S
Cosmos 1356 3.8 04:19:47 11° SSW 04:23:06 49° WNW 04:26:33 10° N
UNK 4.5 04:19:36 10° SSW 04:23:48 34° W 04:28:02 10° NNW
Sich 1 3.1 04:19:27 10° S 04:23:51 89° ESE 04:28:14 10° N
MOZ.5/SAFIR/RUBIN 5/SL-8 3.8 04:19:07 10° S 04:23:53 76° WSW 04:28:42 10° NNW
Cosmos 1814 Rocket 4.1 04:19:25 10° NNW 04:24:48 87° ENE 04:30:10 10° SSE
Cosmos 1763 Rocket 3.9 04:21:05 10° NNW 04:26:23 72° ENE 04:31:34 10° SSE
Cosmos 1140 Rocket 4.2 04:21:44 10° SW 04:26:40 42° WNW 04:31:37 10° NNE
Cosmos 2151 4.4 04:23:44 10° SW 04:27:14 25° WNW 04:30:46 10° NNW
Resurs 1-4 Rocket 2.3 04:24:18 10° N 04:29:32 61° WNW 04:34:46 10° SSW
ADEOS 3.7 04:27:03 10° N 04:32:14 63° WNW 04:37:23 10° SSW
Cosmos 1455 3.4 04:30:09 10° NNW 04:33:23 26° W 04:36:37 10° SW
Cosmos 1850 Rocket 4.3 04:28:22 10° SW 04:33:29 57° WNW 04:38:37 10° NNE
ADEOS Rocket 3.8 04:30:44 10° N 04:37:49 57° WNW 04:45:19 10° SW
Cosmos 1741 Rocket 4.4 04:34:02 10° SW 04:39:15 54° WNW 04:44:30 10° NNE
ADEOS II 3.6 04:34:28 10° NNE 04:39:17 35° E 04:44:04 10° SSE
ATLAS 2AS CENTAUR R/B 4.4 04:37:58 10° WNW 04:42:02 15° WSW 04:45:58 10° SW
NOSS 3-4 (A) 4.0 04:37:29 10° NW 04:44:14 53° WSW 04:51:23 10° SSE
NOSS 3-4 (C) 4.0 04:37:35 10° NW 04:44:20 53° WSW 04:51:30 10° SSE
